[[{"header":{"parameterUnit":"m.s-1","parameterCategory":1,"la1":30.2991,"la2":30.254,"lo1":-89.0895,"lo2":-89.0444,"dx":0.0017,"dy":0.0017,"nx":28,"ny":28,"refTime":"2022-12-02T09:00:00:Z","depth":0,"parameterNumber":2,"parameterNumberName":"U-component_of_WINDS"},"data":[0,0,0,0,0,0,0,0,0,0,0,0,0,0,0,0,0,0,0,0,0,0,0,0,0,0,0,0,0,0,0,0,0,0,0,0,0,0,0,0,0,0,0,0,0,0,0,0,0,0,0,0,0,0,0,0,0,0,-3.5598,-3.5598,0,-3.563,-3.563,-3.563,-3.559,-3.5589,-3.5587,-3.5586,-3.5615,-3.5618,-3.562,0,0,0,0,0,0,0,0,0,0,0,0,0,-3.5501,-3.5503,-3.5598,-3.5599,-3.5599,-3.5629,-3.563,-3.563,-3.559,-3.5589,-3.5587,-3.5585,-3.5615,-3.5617,-3.562,0,0,0,0,0,0,0,0,0,0,0,0,0,-3.5539,-3.5504,-3.5598,-3.5583,-3.5582,-3.5629,-3.563,-3.563,-3.5591,-3.5589,-3.5586,-3.5584,-3.5614,-3.5617,-3.562,-3.5684,0,0,-3.563,-3.5631,0,0,0,0,0,0,0,0,-3.5537,-3.5542,-3.5585,-3.5584,-3.5583,-3.5604,-3.5606,-3.5648,-3.5591,-3.5587,-3.5586,-3.5583,-3.5613,-3.5616,-3.5627,-3.5685,-3.5686,-3.563,-3.5632,-3.5634,-3.5634,0,0,0,0,0,0,0,-3.5534,-3.5541,-3.561,-3.5585,-3.5584,-3.5573,-3.5576,-3.5614,-3.5612,-3.5587,-3.5585,-3.5589,-3.5612,-3.5624,-3.5627,-3.5687,-3.563,-3.5633,-3.5635,-3.5636,-3.5798,-3.58,0,0,0,0,0,0,-3.5534,-3.5539,-3.5609,-3.5611,-3.5554,-3.5577,-3.558,-3.5599,-3.5611,-3.5611,-3.5591,-3.5587,-3.5619,-3.5624,-3.5628,-3.5702,-3.5634,-3.5637,-3.5638,-3.5795,-3.5798,-3.5801,0,0,0,0,0,0,-3.5532,-3.554,-3.5608,-3.5574,-3.5582,-3.5581,-3.5603,-3.5601,-3.5613,-3.5614,-3.5613,-3.5603,-3.5618,-3.5624,-3.567,-3.5703,-3.5638,-3.5641,-3.5792,-3.5796,-3.5799,-3.5852,0,0,0,0,0,0,-3.5529,-3.554,-3.5565,-3.5575,-3.5584,-3.565,-3.5605,-3.5603,-3.5619,-3.5614,-3.5626,-3.5625,-3.5617,-3.5666,-3.5673,-3.5706,-3.5643,-3.5789,-3.5794,-3.5798,-3.5847,-3.5857,-3.5865,0,0,0,0,0,-3.5526,-3.5578,-3.5566,-3.5575,-3.5615,-3.5652,-3.5657,-3.5647,-3.5621,-3.5646,-3.5647,-3.5625,-3.5699,-3.5671,-3.5679,-3.5713,-3.5787,-3.5793,-3.5798,-3.5843,-3.5855,-3.5865,0,0,0,0,0,0,-3.5569,-3.5579,-3.5566,-3.5623,-3.5637,-3.5646,-3.5676,-3.566,-3.5681,-3.5676,-3.5661,-3.5664,-3.5714,-3.5718,-3.5687,-3.5775,-3.5738,-3.5746,-3.577,-3.5781,-3.579,-3.5787,-3.5646,0,0,0,0,0,-3.5586,-3.5616,-3.5622,-3.5672,-3.568,-3.5677,-3.5693,-3.5684,-3.5698,-3.5703,-3.5708,-3.5721,-3.5747,-3.5765,-3.5789,-3.5848,-3.585,-3.5876,-3.5885,-3.5892,-3.5898,-3.5929,-3.5941,-3.5818,-3.5818,-3.5818,0,0,-3.562,-3.5629,-3.5648,-3.5681,-3.5691,-3.5722,-3.5682,-3.5717,-3.5739,-3.5708,-3.5752,-3.5756,-3.577,-3.5824,-3.5847,-3.5829,-3.5933,-3.5899,-3.5905,-3.5907,-3.5936,-3.5947,-3.5958,-3.5822,-3.5821,-3.5821,0,0,-3.5697,-3.5707,-3.5749,-3.5761,-3.5777,-3.5775,-3.5785,-3.5796,-3.5798,-3.5842,-3.5819,-3.5846,-3.5891,-3.5902,-3.5914,-3.5996,-3.5977,-3.6004,-3.605,-3.6081,-3.609,-3.6099,-3.6127,-3.6137,-3.6011,-3.6011,-3.6011,0,-3.5736,-3.5783,-3.5773,-3.5809,-3.5824,-3.5799,-3.584,-3.5852,-3.5875,-3.5885,-3.5865,-3.5921,-3.5929,-3.5984,-3.6004,-3.6015,-3.6025,-3.6002,-3.609,-3.6098,-3.6106,-3.6133,-3.6144,-3.6014,-3.6014,-3.6013,-3.6013,0,-3.583,-3.5863,-3.5895,-3.5919,-3.5937,-3.5976,-3.5971,-3.5991,-3.5981,-3.598,-3.6026,-3.6034,-3.606,-3.6072,-3.6062,-3.6126,-3.6114,-3.6092,-3.6055,-3.6121,-3.6146,-3.6156,-3.6018,-3.6017,-3.6016,-3.6016,0,0,-3.5934,-3.5953,-3.5964,-3.5975,-3.5991,-3.6016,-3.6054,-3.608,-3.6096,-3.6113,-3.6144,-3.6183,-3.6163,-3.6177,-3.6168,-3.6195,-3.6258,-3.6169,-3.6169,-3.6184,-3.6328,-3.6343,-3.6355,-3.6246,-3.6248,-3.625,-3.6326,0,-3.601,-3.6076,-3.6069,-3.6131,-3.6161,-3.6138,-3.6171,-3.6184,-3.6185,-3.621,-3.621,-3.6238,-3.621,-3.6218,-3.6244,-3.6245,-3.6287,-3.624,-3.6273,-3.6274,-3.6269,-3.6368,-3.6385,-3.6456,-3.6336,-3.6338,-3.6339,0,-3.6108,-3.6129,-3.6195,-3.6207,-3.6219,-3.6249,-3.6272,-3.6296,-3.6311,-3.631,-3.6325,-3.6312,-3.6348,-3.6312,-3.6362,-3.633,-3.6344,-3.6347,-3.6349,-3.6351,-3.6309,-3.6371,-3.6479,-3.6489,-3.6354,-3.6353,-3.6352,0,-3.6175,-3.6221,-3.6266,-3.6276,-3.6292,-3.6313,-3.632,-3.6333,-3.6349,-3.6369,-3.6379,-3.6403,-3.6415,-3.6434,-3.6427,-3.6401,-3.6478,-3.6441,-3.6477,-3.6477,-3.6493,-3.6492,-3.6603,-3.6504,-3.6504,-3.6504,-3.6504,0,-3.626,-3.6301,-3.6297,-3.6324,-3.6369,-3.636,-3.6405,-3.6409,-3.6421,-3.6448,-3.643,-3.6456,-3.6446,-3.6471,-3.6466,-3.6508,-3.6514,-3.6513,-3.6511,-3.6514,-3.6514,-3.6522,-3.6516,-3.6507,-3.6506,-3.6506,-3.6505,0,-3.6343,-3.6342,-3.6389,-3.6401,-3.6404,-3.6437,-3.6446,-3.6472,-3.6472,-3.6507,-3.6515,-3.6514,-3.6543,-3.6539,-3.6571,-3.6567,-3.6619,-3.6611,-3.6614,-3.6612,-3.6648,-3.6644,-3.6766,-3.6781,-3.6674,-3.6675,-3.6676,0,-3.6396,-3.6427,-3.6443,-3.646,-3.6469,-3.6498,-3.6514,-3.6507,-3.6525,-3.6544,-3.6567,-3.6595,-3.6616,-3.6663,-3.6665,-3.6689,-3.6681,-3.6722,-3.6684,-3.6686,-3.668,-3.6678,-3.668,-3.6729,-3.6731,-3.6732,-3.6732,0,-3.6491,-3.6489,-3.6514,-3.654,-3.656,-3.6579,-3.6596,-3.6612,-3.6605,-3.6626,-3.6656,-3.6673,-3.6706,-3.6733,-3.6756,-3.6762,-3.6746,-3.6745,-3.6754,-3.6756,-3.6756,-3.6756,-3.6633,-3.6741,-3.6741,-3.674,-3.6739,-3.6739,-3.656,-3.6586,-3.6601,-3.663,-3.6642,-3.6659,-3.6683,-3.6687,-3.6712,-3.6739,-3.6733,-3.6766,-3.678,-3.6809,-3.6818,-3.6844,-3.6828,-3.6842,-3.6845,-3.6848,-3.6852,-3.6754,-3.6848,-3.6848,-3.6847,-3.6847,-3.6847,0,-3.6653,-3.6661,-3.6688,-3.6713,-3.6735,-3.672,-3.6739,-3.6758,-3.6788,-3.6802,-3.6824,-3.6858,-3.6885,-3.6889,-3.6914,-3.6934,-3.6927,-3.694,-3.6938,-3.694,-3.6865,-3.6854,-3.6945,-3.6945,-3.6945,-3.6945,-3.6945,-3.6945,-3.6703,-3.6747,-3.6747,-3.6797,-3.6805,-3.6838,-3.685,-3.6865,-3.6877,-3.6916,-3.6938,-3.6941,-3.6952,-3.6978,-3.7001,-3.7002,-3.7011,-3.7027,-3.7025,-3.6955,-3.6945,-3.6935,-3.6925,-3.703,-3.703,-3.7097,-3.7097,-3.7098]},{"header":{"parameterUnit":"m.s-1","parameterCategory":1,"la1":30.2991,"la2":30.254,"lo1":-89.0895,"lo2":-89.0444,"dx":0.0017,"dy":0.0017,"nx":28,"ny":28,"refTime":"2022-12-02T09:00:00:Z","depth":0,"parameterNumber":3,"parameterNumberName":"V-component_of_WINDS"},"data":[0,0,0,0,0,0,0,0,0,0,0,0,0,0,0,0,0,0,0,0,0,0,0,0,0,0,0,0,0,0,0,0,0,0,0,0,0,0,0,0,0,0,0,0,0,0,0,0,0,0,0,0,0,0,0,0,0,0,2.6153,2.6153,0,2.6195,2.6196,2.6196,2.6203,2.6203,2.6203,2.6202,2.6242,2.6244,2.6245,0,0,0,0,0,0,0,0,0,0,0,0,0,2.6075,2.6077,2.6153,2.6153,2.6154,2.6195,2.6196,2.6196,2.6203,2.6203,2.6203,2.6202,2.6242,2.6243,2.6245,0,0,0,0,0,0,0,0,0,0,0,0,0,2.6113,2.6077,2.6153,2.6162,2.6164,2.6195,2.6196,2.6197,2.6204,2.6203,2.6202,2.6202,2.6241,2.6243,2.6245,2.6269,0,0,2.6252,2.6253,0,0,0,0,0,0,0,0,2.611,2.6115,2.616,2.6162,2.6163,2.6194,2.6183,2.6221,2.6204,2.6188,2.6202,2.6202,2.6226,2.623,2.6239,2.6271,2.6272,2.6252,2.6253,2.6254,2.6255,0,0,0,0,0,0,0,2.6108,2.6114,2.6169,2.6161,2.6163,2.6164,2.6169,2.619,2.621,2.619,2.619,2.6195,2.6227,2.6237,2.624,2.6273,2.6252,2.6254,2.6255,2.6256,2.6328,2.6329,0,0,0,0,0,0,2.6104,2.6111,2.6168,2.6171,2.6135,2.6166,2.6171,2.6184,2.6209,2.6213,2.6196,2.6196,2.6233,2.6237,2.6241,2.6272,2.6254,2.6256,2.6257,2.6328,2.6328,2.6329,0,0,0,0,0,0,2.6102,2.6109,2.6166,2.6141,2.6149,2.6168,2.6183,2.6185,2.6195,2.6214,2.6217,2.6202,2.6233,2.6238,2.6263,2.6273,2.6257,2.6259,2.6327,2.6328,2.6329,2.6332,0,0,0,0,0,0,2.61,2.6108,2.6118,2.6142,2.615,2.6188,2.6183,2.6187,2.6199,2.6199,2.6221,2.6224,2.6233,2.6259,2.6265,2.6276,2.626,2.6326,2.6327,2.6329,2.6331,2.6333,2.6335,0,0,0,0,0,2.6097,2.6116,2.6118,2.6125,2.6163,2.6189,2.6193,2.6204,2.62,2.621,2.6222,2.6223,2.6271,2.6262,2.6268,2.628,2.6325,2.6327,2.6328,2.633,2.6333,2.6335,0,0,0,0,0,0,2.6091,2.6119,2.6122,2.6149,2.6167,2.619,2.6202,2.6206,2.6224,2.6223,2.6235,2.624,2.6264,2.6274,2.6263,2.6304,2.6298,2.6301,2.6297,2.63,2.6301,2.6299,2.6262,0,0,0,0,0,2.6093,2.6113,2.6136,2.6157,2.6166,2.6183,2.6194,2.6201,2.6219,2.6227,2.6241,2.6257,2.6276,2.6288,2.6306,2.6332,2.6338,2.6344,2.6345,2.6347,2.6349,2.6365,2.6368,2.6334,2.6334,2.6334,0,0,2.6097,2.6115,2.6126,2.6157,2.6171,2.6191,2.6189,2.6209,2.6224,2.6229,2.6254,2.6265,2.6284,2.631,2.6322,2.6319,2.636,2.6349,2.635,2.6351,2.6367,2.637,2.6373,2.6335,2.6335,2.6335,0,0,2.6114,2.6129,2.615,2.6165,2.6188,2.6199,2.6204,2.6227,2.6235,2.6261,2.6266,2.6283,2.6315,2.6329,2.634,2.6365,2.6368,2.6371,2.638,2.6396,2.6399,2.6401,2.6411,2.6415,2.6373,2.6373,2.6373,0,2.6116,2.6147,2.616,2.6181,2.6195,2.6202,2.6223,2.6237,2.6263,2.6273,2.6269,2.6311,2.6324,2.6354,2.6361,2.6369,2.6376,2.6368,2.6397,2.64,2.6402,2.6412,2.6416,2.6373,2.6373,2.6373,2.6373,0,2.6149,2.617,2.6184,2.6212,2.6227,2.6248,2.6263,2.6277,2.6283,2.6295,2.6321,2.6337,2.636,2.6368,2.6373,2.6399,2.6397,2.6395,2.6389,2.6406,2.6415,2.6419,2.6374,2.6374,2.6374,2.6373,0,0,2.6162,2.6199,2.6204,2.6218,2.6244,2.6261,2.6282,2.6306,2.6318,2.6336,2.6355,2.6383,2.6382,2.6395,2.6402,2.6415,2.6436,2.6412,2.6413,2.6417,2.6467,2.6469,2.6473,2.6438,2.6438,2.6439,2.6466,0,2.6184,2.6224,2.6237,2.627,2.6291,2.6299,2.6318,2.6336,2.6348,2.6366,2.6378,2.6399,2.6396,2.6404,2.6417,2.6431,2.6446,2.6429,2.6455,2.6456,2.6451,2.6478,2.648,2.6504,2.647,2.647,2.6471,0,2.6214,2.6236,2.6272,2.6298,2.6307,2.6324,2.6348,2.6365,2.6386,2.6393,2.6409,2.6415,2.6438,2.643,2.6462,2.645,2.6461,2.6469,2.647,2.6474,2.6465,2.6483,2.6512,2.6517,2.6476,2.6476,2.6476,0,2.6223,2.626,2.6287,2.6299,2.6329,2.6341,2.6354,2.6374,2.6388,2.6408,2.6418,2.644,2.6452,2.6469,2.6481,2.6474,2.6512,2.6505,2.6519,2.6519,2.6527,2.6526,2.656,2.6533,2.6533,2.6532,2.6532,0,2.6246,2.6268,2.6292,2.6308,2.6334,2.6348,2.6372,2.6385,2.6404,2.6423,2.643,2.6448,2.6462,2.6482,2.6491,2.6517,2.6521,2.6528,2.6531,2.6528,2.6528,2.6536,2.6535,2.6533,2.6533,2.6533,2.6533,0,2.626,2.6276,2.6307,2.6334,2.6341,2.6359,2.6381,2.6398,2.641,2.6434,2.6441,2.646,2.6483,2.6497,2.6526,2.6532,2.6561,2.6562,2.6555,2.6556,2.657,2.6569,2.6611,2.6617,2.6585,2.6585,2.6585,0,2.6274,2.6291,2.6321,2.6335,2.6349,2.6371,2.6387,2.6402,2.6417,2.6443,2.6456,2.6481,2.6501,2.6538,2.6554,2.6577,2.6579,2.6592,2.6582,2.658,2.6581,2.658,2.6582,2.6594,2.6594,2.6594,2.6594,0,2.6298,2.6306,2.6328,2.6354,2.6373,2.6393,2.6413,2.6424,2.6443,2.6459,2.6485,2.6501,2.6532,2.6556,2.658,2.6592,2.6597,2.6598,2.6602,2.66,2.6596,2.66,2.656,2.6596,2.6596,2.6596,2.6596,2.6596,2.6313,2.633,2.6354,2.6379,2.6397,2.6416,2.6433,2.6449,2.6471,2.6498,2.6505,2.6532,2.6554,2.6587,2.66,2.6621,2.6619,2.6625,2.6627,2.6628,2.663,2.6592,2.6625,2.6625,2.6625,2.6625,2.6625,0,2.6338,2.6355,2.6378,2.6408,2.6428,2.6431,2.6455,2.6471,2.6495,2.6515,2.6536,2.6565,2.6589,2.6608,2.6633,2.6646,2.6648,2.6652,2.6651,2.6654,2.663,2.6624,2.6649,2.6649,2.6649,2.6649,2.6649,2.6649,2.6354,2.6383,2.6394,2.6432,2.6449,2.6476,2.649,2.6508,2.6524,2.6558,2.6578,2.6591,2.6611,2.6637,2.6659,2.6664,2.6673,2.6677,2.6682,2.6658,2.6656,2.6653,2.6648,2.6678,2.6678,2.6705,2.6705,2.6705]}]]